Regional Weather Roundup
Issued by NWS

Home | Current Version | Previous Version | Graphics & Text | Print | Product List | Glossary On
Versions: 1 2 3 4 5 6 7 8 9 10 11 12 13 14 15 16 17 18 19 20 21 22 23 24 25 26 27 28 29 30 31 32 33 34 35 36 37 38 39 40 41 42 43 44 45 46 47 48 49 50
000
ASUS43 KIND 030009
RWRIN

WEATHER ROUNDUP FOR INDIANA
NATIONAL WEATHER SERVICE INDIANAPOLIS IN
700 PM EST FRI DEC 02 2016

NOTE: "FAIR" INDICATES FEW OR NO CLOUDS BELOW 12,000 FEET WITH NO
SIGNIFICANT WEATHER AND/OR OBSTRUCTIONS TO VISIBILITY.

* - STATION DOES NOT REPORT WEATHER SUCH AS PRECIPITATION OR FOG.

+ - STATION NOT QUALITY CONTROLLED BY THE NATIONAL WEATHER SERVICE.
    USE DATA WITH CAUTION...ESPECIALLY DEWPOINT AND RELATIVE
    HUMIDITY OBSERVATIONS.

INZ001>003-010>013-019-020-030100-
NORTHWEST INDIANA

CITY           SKY/WX    TMP DP  RH WIND       PRES   REMARKS
GARY /AIRPORT/ CLOUDY    39  28  65 W13       30.26R
KNOX *+        CLOUDY    36  18  48 CALM      30.24S
LA PORTE +     CLOUDY    38  35  89 N5        30.24S
6HR MIN TEMP:  38; 6HR MAX TEMP:  40;

MICHIGAN CITY+ CLOUDY    36  28  75 N9        30.25R
MONTICELLO +   CLOUDY    38  29  70 W8        30.25S
6HR MIN TEMP:  37; 6HR MAX TEMP:  39;

RENSSELAER +   CLOUDY    36  34  93 W7        30.27R
VALPARAISO     CLOUDY    39  30  70 NW5       30.25R
6HR MIN TEMP:  38; 6HR MAX TEMP:  40; 6HR PCP: TRACE;


$$

LMZ046-743>745-030100-
SOUTHERN LAKE MICHIGAN

STATION/POSITION TIME  TEMP    WIND        PRES    WAVE
                       AIR SEA DIR/SP/G            HT
                 (UTC) (F)     (DEG/KT/KT) (MB)    (FT)
BURNS HARBOR     2340   40     320/ 10/ 14 1024.4R
MICHIGAN CITY    2310   38     320/ 19/ 22   N/A

$$

INZ004-005-014>016-021>024-030100-
NORTH CENTRAL INDIANA

CITY           SKY/WX    TMP DP  RH WIND       PRES   REMARKS
ELKHART        CLOUDY    37  27  65 NW6       30.23R
GOSHEN         CLOUDY    36  28  73 W5        30.23R
6HR MIN TEMP:  36; 6HR MAX TEMP:  38; 6HR PCP: TRACE;

LOGANSPORT +   CLOUDY    36  32  87 W8        30.26R
PERU/GRISSOM   CLOUDY    37  34  89 W7        30.23R
6HR MIN TEMP:  36; 6HR MAX TEMP:  39; 6HR PCP:  0.01;

ROCHESTER +    CLOUDY    39  34  81 W5        30.24S
SOUTH BEND     CLOUDY    35  27  72 NW6       30.24R WCI  30
6HR MIN TEMP:  35; 6HR MAX TEMP:  37; 6HR PCP: TRACE;

WARSAW +       CLOUDY    36  30  80 W3        30.24R

$$

INZ006>009-017-018-025>027-030100-
NORTHEAST INDIANA

CITY           SKY/WX    TMP DP  RH WIND       PRES   REMARKS
ANGOLA *+      CLOUDY    36  28  75 NW9       30.21R
AUBURN +       MOCLDY    36  28  75 W7        30.23R
FORT WAYNE     CLOUDY    37  32  82 W5        30.24R
6HR MIN TEMP:  37; 6HR MAX TEMP:  40;

HUNTINGTON +   CLOUDY    37  31  79 W3        30.23S
6HR MIN TEMP:  37; 6HR MAX TEMP:  39;

KENDALLVILLE + CLOUDY    34  28  78 NW3       30.22R

$$

INZ028-029-035-036-043>045-051>053-030100-
WEST CENTRAL INDIANA

CITY           SKY/WX    TMP DP  RH WIND       PRES   REMARKS
CRAWFORDSVL +  CLOUDY    36  34  92 W5        30.28R
6HR MIN TEMP:  36; 6HR MAX TEMP:  38;

GREENCASTLE +  CLOUDY    36  36 100 CALM      30.29R
LAFAYETTE      CLOUDY    38  33  82 W7        30.28R
6HR MIN TEMP:  37; 6HR MAX TEMP:  40; 6HR PCP: TRACE;

TERRE HAUTE    CLOUDY    40  30  67 W7        30.31R
6HR MIN TEMP:  40; 6HR MAX TEMP:  42;


$$

INZ030>032-037>040-046>048-054>057-064-065-030100-
CENTRAL INDIANA

CITY           SKY/WX    TMP DP  RH WIND       PRES   REMARKS
CP ATTERBURY + CLOUDY    37  32  81 NW6       30.29R
COLUMBUS       CLOUDY    39  32  75 NW6       30.29R
FRANKFORT +    CLOUDY    39  34  82 W7        30.28R
6HR MIN TEMP:  39; 6HR MAX TEMP:  42;

GREENWOOD *+   CLOUDY    39  34  81 W6        30.28R
6HR MIN TEMP:  39; 6HR MAX TEMP:  40;

INDIANAPOLIS   CLOUDY    39  33  79 W10       30.27R
6HR MIN TEMP:  39; 6HR MAX TEMP:  40;

-EAGLE CREEK   LGT RAIN  39  33  79 VRB6      30.27R
6HR MIN TEMP:  39; 6HR MAX TEMP:  40; 6HR PCP: TRACE;

KOKOMO +       CLOUDY    38  32  79 W9        30.26R
6HR MIN TEMP:  35; 6HR MAX TEMP:  39; 6HR PCP: TRACE;

MARION +       CLOUDY    36  32  85 W7        30.26R
MT COMFORT *+  CLOUDY    37  32  81 NW10      30.27R
SHELBYVILLE    CLOUDY    40  32  73 W8        30.27R
6HR MIN TEMP:  40; 6HR MAX TEMP:  41;

ZIONSVILLE +   CLOUDY    36  32  85 W5        30.27R
6HR MIN TEMP:  36; 6HR MAX TEMP:  38;


$$

INZ033-034-041-042-049-050-058-059-030100-
EAST CENTRAL INDIANA

CITY           SKY/WX    TMP DP  RH WIND       PRES   REMARKS
MUNCIE         CLOUDY    38  30  73 W10       30.25R
6HR MIN TEMP:  37; 6HR MAX TEMP:  40;


$$

INZ060-061-067>069-081>083-085>088-030100-
SOUTHWEST INDIANA

CITY           SKY/WX    TMP DP  RH WIND       PRES   REMARKS
EVANSVILLE     CLEAR     40  30  67 NW3       30.33R
6HR MIN TEMP:  40; 6HR MAX TEMP:  48;

HUNTINGBURG *+ CLOUDY    41  31  67 N6        30.32R
6HR MIN TEMP:  41; 6HR MAX TEMP:  46;

WASHINGTON +   CLOUDY    40  34  80 NW5       30.31S
6HR MIN TEMP:  40; 6HR MAX TEMP:  43;


$$

INZ062-063-066-070>080-084-089>092-030100-
SOUTH CENTRAL AND SOUTHEAST INDIANA

CITY           SKY/WX    TMP DP  RH WIND       PRES   REMARKS
BLOOMINGTON    CLOUDY    40  30  67 W7        30.29R
6HR MIN TEMP:  40; 6HR MAX TEMP:  41;

MADISON *+     CLOUDY    39  30  70 W3        30.30R
NORTH VERNON + CLOUDY    41  36  81 W3        30.28R
SEYMOUR +      CLOUDY    41  32  70 SW5       30.29R

$$




USA.gov is the U.S. government's official web portal to all federal, state and local government web resources and services.